SCP
-0 -0 0 0 0 0 0 -0 0 -0 -0 0 0 -0 -0 -0 -0 -0 0 0 -0 0 -0 -0 -0 0 -0 0 0 0 0 0 0 0 0 0 0 0 0 0 0 0 0 0
0 -0 0 0 -0 -0 -0 0 0 -0 0 0 0 0 0 -0 -0 -0 -0 -0 0 0 0 0 0 -0 -0 0 -0 -0 -0 -0 -0 0 0 0 0 0 0 0 0 -0 0 0
-0 0 0 0 0 -0 -0 0 0 -0 -0 0 0 -0 -0 -0 -0 -0 -0 0 -0 -0 0 0 -0 0 0 -0 -0 -0 -0 0 0 -0 0 0 0 0 0 0 0 0 -0 -0
-0 0 0 0 0 0 -0 0 0 0 -0 0 0 0 -0 0 -0 0 0 -0 -0 -0 0 0 -0 0 -0 0 -0 0 -0 -0 -0 0 0 0 0 0 0 0 0 0 0 -0
0 0 -0 0 0 0 0 0 0 0 0 -0 0 0 -0 0 -0 -0 0 0 -0 -0 -1 -0 -0 -0 0 -0 0 0 -0 -0 0 0 0 0 0 0 -0 0 0 0 0 0
0 0 0 0 0 0 0 0 0 0 0 0 0 0 -0 0 0 0 0 0 0 0 -1 -0 -0 -0 -0 0 0 0 0 0 0 0 0 0 -0 -0 -0 -0 0 -0 0 0
-0 0 0 0 0 0 0 -0 -0 0 -0 0 0 0 -0 -0 0 0 0 0 0 0 -0 -0 -0 0 0 -0 0 0 0 0 1 1 0 0 -0 0 0 0 0 -0 0 0
-0 -0 -0 0 0 0 -0 0 0 0 0 0 0 0 0 0 0 0 0 -0 0 0 0 0 0 0 0 0 0 0 0 0 1 1 0 0 0 0 0 0 0 0 0 0
-0 -0 0 0 0 0 0 0 0 -0 0 0 0 0 0 0 0 0 -0 -0 0 0 -0 0 1 0 1 0 0 0 0 0 0 0 0 0 0 0 0 0 0 0 0 0
-0 0 0 0 0 0 0 0 -0 -0 0 0 0 0 0 0 0 0 0 0 -0 0 0 0 -0 1 0 0 0 1 0 0 -0 -0 -0 0 0 0 0 0 0 0 0 0
0 -0 0 0 0 0 0 0 0 0 0 0 0 0 0 0 0 0 0 0 0 0 0 0 1 1 1 1 1 1 0 0 0 -0 -0 0 0 0 0 0 0 0 0 1
0 -0 -0 0 0 0 0 0 0 0 0 0 0 0 0 0 0 1 1 0 0 1 1 1 1 1 1 1 1 1 1 1 1 0 -0 0 0 0 0 1 0 0 1 1
0 -0 0 0 0 0 0 0 0 0 0 0 0 0 0 0 0 1 1 1 1 1 1 2 1 1 1 0 0 1 1 1 1 0 0 0 0 0 0 0 1 0 0 0
0 0 0 0 0 0 0 0 0 0 0 0 0 0 0 0 1 1 2 1 2 1 1 1 0 0 0 0 0 0 0 0 0 0 1 1 1 1 1 1 1 1 1 1
0 0 0 0 0 0 0 0 0 0 0 0 0 0 1 1 1 1 1 1 0 0 0 0 0 0 0 0 0 0 0 0 0 0 0 0 0 1 1 1 1 1 1 1
0 0 0 0 0 0 0 0 0 0 0 0 0 0 0 0 0 0 0 0 0 0 0 0 0 0 0 0 0 0 0 0 0 0 0 0 0 0 0 1 1 1 1 1
0 0 0 0 0 0 0 0 0 0 0 0 0 0 0 0 0 0 0 0 0 0 0 0 0 0 0 0 0 0 0 0 0 0 0 0 0 0 0 0 0 0 0 1
0 0 0 0 0 0 0 0 0 0 0 0 0 0 0 0 0 0 0 0 0 0 0 0 0 0 0 0 0 0 0 0 0 0 0 0 0 0 0 0 0 0 0 0
0 0 0 0 0 0 0 0 0 0 0 0 0 0 0 0 0 0 0 0 0 0 0 0 0 0 0 0 0 0 0 0 0 0 0 0 0 0 0 0 0 0 0 0
0 0 0 0 0 0 0 0 0 0 0 0 0 0 0 0 0 0 0 0 0 0 0 0 0 0 0 0 0 0 0 0 0 0 0 0 0 0 0 0 0 0 0 0
0 0 0 0 0 0 0 0 0 0 0 0 0 0 0 0 0 0 0 0 0 0 0 0 0 0 0 0 0 0 0 0 0 0 0 0 0 0 0 0 0 0 0 0
0 0 0 0 0 0 0 0 0 0 0 0 0 0 0 0 0 0 0 0 0 0 0 0 0 0 0 0 0 0 0 0 0 0 0 0 0 0 0 0 0 0 0 0
0 0 0 0 0 0 0 0 0 0 0 0 0 0 0 0 0 0 0 0 0 0 0 0 0 0 0 0 0 0 0 0 0 0 0 0 0 0 0 0 0 0 0 0
0 0 0 0 0 0 0 0 0 0 0 0 0 0 0 0 0 0 0 0 0 0 0 0 0 0 0 0 0 0 0 0 0 0 0 0 0 0 0 0 0 0 0 0
0 0 0 0 0 0 0 0 0 0 0 0 0 0 0 0 0 0 0 0 0 0 0 0 0 0 0 0 0 0 0 0 0 0 0 0 0 0 0 0 0 0 0 0
0 0 0 0 0 0 0 0 0 0 0 0 0 0 0 0 0 0 0 0 0 0 0 0 0 0 0 0 0 0 0 0 0 0 0 0 0 0 0 0 0 0 0 0
Wind_Speed_500mb
28 21 22 14 8 12 12 15 12 4 3 10 14 16 13 22 27 29 33 34 31 26 19 13 8 21 27 26 28 31 33 34 34 33 31 31 29 26 23 23 29 30 24 27
20 31 13 4 10 10 15 14 5 10 8 11 4 15 2 9 20 26 27 33 31 33 25 21 6 28 27 28 32 33 35 35 39 32 30 29 26 27 25 23 21 16 16 23
35 25 10 9 10 16 17 10 9 14 12 5 8 20 16 17 8 13 24 26 34 36 36 36 26 29 19 26 30 32 33 35 36 35 35 39 34 35 27 26 26 22 15 17
40 24 10 12 14 13 16 6 9 11 18 7 6 11 12 10 11 11 19 27 36 40 46 49 21 24 10 14 22 25 29 29 29 34 36 38 35 27 22 23 24 24 24 20
35 20 27 21 6 8 12 8 1 2 13 15 16 15 20 9 15 18 19 8 23 46 56 53 41 24 27 27 25 23 25 21 21 28 30 33 36 29 24 23 29 32 30 28
36 13 11 13 1 8 10 12 10 9 15 22 12 13 15 10 7 13 21 18 18 27 43 41 40 30 30 23 20 19 18 19 20 25 26 27 32 29 24 24 25 25 25 28
40 31 18 14 13 10 25 22 16 12 14 3 10 12 19 13 10 11 15 23 23 26 26 26 24 21 17 12 10 12 9 9 12 14 16 16 16 17 19 27 29 30 25 23
35 37 38 18 25 21 24 22 15 7 14 9 9 9 13 13 14 17 18 24 26 25 26 24 16 7 9 9 14 9 8 8 8 7 9 14 8 11 22 28 17 17 21 23
32 30 22 11 13 22 16 21 14 21 8 13 8 8 20 15 15 17 22 27 25 24 24 17 17 23 13 12 14 18 21 13 9 9 11 13 13 18 20 16 15 17 21 20
27 25 19 14 19 8 15 4 12 11 7 18 13 6 9 15 20 18 22 28 28 22 21 21 25 25 19 19 16 16 19 17 14 9 13 15 16 15 16 14 15 17 21 22
25 16 19 22 18 24 13 20 12 10 11 14 13 5 21 12 6 21 23 27 25 23 24 27 27 23 19 15 13 12 11 11 13 12 13 15 14 14 17 16 18 20 18 21
18 13 21 16 8 5 7 3 12 17 19 6 16 8 16 11 10 15 24 28 23 20 23 23 19 16 13 11 10 8 10 12 13 11 11 13 17 21 14 7 10 19 23 23
20 13 19 22 19 12 13 9 9 13 10 11 16 9 16 21 18 14 24 23 20 19 19 18 14 13 14 11 9 11 11 12 12 14 15 18 19 19 18 17 16 16 16 20
27 17 18 10 10 18 16 16 9 15 14 3 11 3 22 16 11 18 21 22 23 19 18 18 20 17 17 16 17 14 17 16 20 22 24 26 26 27 28 28 26 25 22 21
24 17 10 7 7 3 8 15 8 14 12 16 20 14 14 9 13 18 25 27 26 23 18 18 15 15 17 18 19 21 23 28 33 36 37 34 40 36 32 36 35 40 36 31
19 8 13 7 10 17 13 10 6 3 7 15 13 5 9 18 24 27 25 23 20 19 15 15 17 17 20 25 27 30 35 40 41 43 41 42 39 38 30 27 30 39 45 44
24 15 18 16 11 11 17 10 4 1 6 12 15 19 21 21 26 24 24 21 19 14 13 14 18 22 25 28 32 34 37 36 36 36 35 35 40 45 47 43 38 36 35 38
28 25 15 12 16 19 11 4 4 9 4 6 4 18 20 22 24 25 20 16 13 12 12 14 17 21 25 28 31 32 32 33 33 31 34 36 38 40 42 45 46 44 40 40
29 19 9 12 22 8 11 10 11 12 7 8 15 21 25 27 25 18 14 13 11 10 12 15 21 24 27 30 33 33 34 32 33 39 44 48 50 54 56 55 51 50 50 47
19 13 13 10 12 13 18 20 11 5 14 24 23 27 30 26 16 17 13 9 9 12 17 21 24 24 25 29 30 32 32 33 37 46 51 53 53 55 59 58 58 58 54 52
18 12 16 16 10 10 12 20 18 12 10 25 26 28 24 12 12 20 11 7 10 13 18 20 20 21 25 27 30 31 33 37 47 49 53 49 46 51 49 57 60 59 61 60
16 15 11 5 8 13 24 22 9 8 15 24 27 22 16 18 16 12 7 7 11 14 16 16 18 20 22 27 30 32 35 42 50 49 45 47 47 50 51 54 58 56 51 52
8 6 2 8 9 11 33 10 13 12 23 25 26 22 21 18 12 6 3 6 10 12 13 14 16 18 21 24 26 29 35 48 49 43 46 45 45 50 51 49 51 53 49 41
7 4 3 12 11 17 20 11 16 26 28 28 26 24 18 15 10 6 3 5 7 10 10 13 15 18 21 24 25 28 41 48 41 43 46 47 48 53 52 48 47 48 48 42
7 17 12 8 13 17 16 19 27 32 33 33 27 21 17 13 9 6 6 9 10 11 13 16 19 22 24 25 24 28 41 46 43 45 47 44 47 46 51 49 48 45 35 33
18 10 10 2 31 5 36 34 34 35 32 29 27 21 15 12 11 14 15 13 11 12 15 18 20 22 24 25 25 29 32 40 48 50 47 48 48 46 48 49 50 35 34 26
Wind_Direction_500mb
208 232 222 50 20 345 304 289 294 329 228 235 239 261 130 179 203 199 190 176 175 172 163 161 220 255 246 241 245 244 246 234 238 239 229 225 228 235 253 270 268 267 270 254
191 228 90 231 283 279 271 283 100 100 152 227 183 259 117 167 205 220 205 179 175 158 141 164 313 297 237 238 241 244 249 249 253 238 239 235 245 252 254 260 285 276 265 240
212 197 128 246 243 265 217 267 117 94 151 183 257 240 188 134 176 207 200 190 174 168 153 157 175 222 254 236 247 249 248 252 257 251 254 260 258 263 260 266 264 276 274 256
218 136 200 226 263 270 225 125 121 132 250 22 253 311 155 130 122 135 162 182 189 175 171 184 200 206 246 244 248 251 257 254 262 258 248 253 259 260 261 256 251 257 265 262
202 197 218 235 261 315 60 125 99 267 275 277 163 265 121 152 123 102 83 119 205 189 186 198 216 231 259 273 260 252 256 252 269 265 262 253 261 264 276 261 270 263 254 256
205 161 220 243 197 298 162 155 189 218 271 254 85 278 122 68 69 101 90 90 125 175 183 208 225 242 259 259 241 236 252 255 279 281 276 271 268 270 270 276 269 267 256 245
211 185 196 227 240 193 223 218 231 223 206 37 95 250 56 101 79 71 87 112 123 140 162 189 211 223 224 208 202 216 242 287 303 294 302 292 276 267 294 298 279 257 250 255
196 201 221 202 244 251 214 282 271 240 250 202 138 236 99 94 95 105 102 125 130 138 137 144 146 207 215 184 143 126 97 88 73 26 14 349 311 253 297 292 272 245 259 260
197 213 187 192 221 258 168 230 348 291 218 282 141 143 176 148 124 114 111 127 134 128 121 121 111 109 128 136 121 114 106 105 75 57 15 1 328 285 300 273 271 279 265 269
188 180 183 152 184 199 276 51 209 205 192 246 153 273 303 152 148 139 136 134 138 136 133 120 108 105 109 117 106 100 93 90 85 54 2 349 344 331 322 311 301 285 276 274
169 235 153 183 206 194 178 210 230 315 305 301 252 170 69 87 129 153 144 141 137 136 132 123 107 101 105 106 94 83 80 80 67 43 13 8 9 359 348 353 359 348 324 297
210 223 170 128 108 237 306 316 212 236 170 226 323 355 59 67 145 136 142 151 136 126 127 125 118 103 92 86 82 73 67 61 54 50 13 338 341 335 322 304 342 353 340 327
179 214 137 147 159 167 189 159 306 293 314 255 296 64 68 88 101 143 144 146 136 125 127 125 107 87 85 60 52 39 24 10 4 345 331 312 302 300 295 287 295 311 315 323
201 194 236 182 133 145 161 180 220 289 295 306 259 107 83 74 103 110 118 133 121 110 109 99 82 73 60 47 32 20 6 341 345 324 317 308 303 294 288 281 279 285 287 285
216 182 234 351 62 114 129 170 196 266 343 289 5 335 61 77 110 115 120 125 120 107 94 83 72 54 37 21 5 351 342 332 323 318 317 313 307 305 289 270 276 272 270 271
216 126 179 144 165 165 159 155 183 232 276 277 296 238 85 116 117 116 111 114 105 93 80 48 41 22 7 358 348 344 335 326 321 316 313 308 307 305 308 301 289 278 271 269
188 160 195 151 149 149 200 166 202 262 258 312 288 82 142 139 127 126 125 124 115 94 63 30 11 359 350 342 341 339 335 331 330 328 324 321 319 312 304 303 303 299 291 284
191 186 205 132 168 218 80 117 231 275 311 257 125 141 146 138 129 122 121 118 96 67 36 10 351 345 342 340 339 338 336 333 332 328 328 329 324 318 316 312 308 303 295 287
169 174 146 172 210 88 165 179 177 215 135 196 159 152 149 149 138 120 107 92 76 44 17 357 347 345 343 341 338 333 333 332 334 333 330 329 325 320 316 310 305 303 303 297
153 201 190 204 200 233 78 134 139 151 251 167 164 168 168 174 223 109 125 85 38 16 0 351 344 343 341 343 345 347 346 346 341 332 327 322 320 317 313 309 304 299 285 288
153 195 207 181 253 104 117 140 157 234 72 158 169 170 172 201 47 118 109 62 24 8 354 353 350 348 348 347 350 346 340 337 332 328 328 328 324 321 319 315 311 307 297 278
181 197 196 216 252 244 151 150 219 70 138 152 158 162 153 132 123 111 81 34 7 359 356 3 358 352 348 347 345 343 339 332 331 330 332 334 335 335 331 327 323 317 307 302
196 346 19 333 38 126 161 77 127 140 144 149 149 148 146 139 129 127 76 20 5 4 23 7 359 353 348 344 343 341 335 335 334 337 342 339 338 338 338 335 332 324 317 305
142 139 178 179 124 148 164 132 151 143 141 141 142 138 139 135 132 120 66 20 34 46 26 15 7 358 352 349 347 343 339 346 339 334 336 340 339 337 340 343 343 336 331 316
42 164 161 99 132 133 165 163 147 138 136 134 129 128 124 126 121 126 106 95 84 59 30 14 6 358 352 347 345 338 355 355 354 346 342 340 338 338 343 346 346 350 347 329
187 150 207 50 157 203 164 161 153 144 141 138 131 120 110 116 126 123 115 103 76 44 24 14 8 0 354 350 347 342 355 2 6 3 2 356 349 340 343 343 342 354 355 352
Wind_Speed_850mb
28 21 22 14 8 12 12 15 12 4 3 10 14 16 13 22 27 29 33 34 31 26 19 13 8 21 27 26 28 31 33 34 34 33 31 31 29 26 23 23 29 30 24 27
20 31 13 4 10 10 15 14 5 10 8 11 4 15 2 9 20 26 27 33 31 33 25 21 6 28 27 28 32 33 35 35 39 32 30 29 26 27 25 23 21 16 16 23
35 25 10 9 10 16 17 10 9 14 12 5 8 20 16 17 8 13 24 26 34 36 36 36 26 29 19 26 30 32 33 35 36 35 35 39 34 35 27 26 26 22 15 17
40 24 10 12 14 13 16 6 9 11 18 7 6 11 12 10 11 11 19 27 36 40 46 49 21 24 10 14 22 25 29 29 29 34 36 38 35 27 22 23 24 24 24 20
35 20 27 21 6 8 12 8 1 2 13 15 16 15 20 9 15 18 19 8 23 46 56 53 41 24 27 27 25 23 25 21 21 28 30 33 36 29 24 23 29 32 30 28
36 13 11 13 1 8 10 12 10 9 15 22 12 13 15 10 7 13 21 18 18 27 43 41 40 30 30 23 20 19 18 19 20 25 26 27 32 29 24 24 25 25 25 28
40 31 18 14 13 10 25 22 16 12 14 3 10 12 19 13 10 11 15 23 23 26 26 26 24 21 17 12 10 12 9 9 12 14 16 16 16 17 19 27 29 30 25 23
35 37 38 18 25 21 24 22 15 7 14 9 9 9 13 13 14 17 18 24 26 25 26 24 16 7 9 9 14 9 8 8 8 7 9 14 8 11 22 28 17 17 21 23
32 30 22 11 13 22 16 21 14 21 8 13 8 8 20 15 15 17 22 27 25 24 24 17 17 23 13 12 14 18 21 13 9 9 11 13 13 18 20 16 15 17 21 20
27 25 19 14 19 8 15 4 12 11 7 18 13 6 9 15 20 18 22 28 28 22 21 21 25 25 19 19 16 16 19 17 14 9 13 15 16 15 16 14 15 17 21 22
25 16 19 22 18 24 13 20 12 10 11 14 13 5 21 12 6 21 23 27 25 23 24 27 27 23 19 15 13 12 11 11 13 12 13 15 14 14 17 16 18 20 18 21
18 13 21 16 8 5 7 3 12 17 19 6 16 8 16 11 10 15 24 28 23 20 23 23 19 16 13 11 10 8 10 12 13 11 11 13 17 21 14 7 10 19 23 23
20 13 19 22 19 12 13 9 9 13 10 11 16 9 16 21 18 14 24 23 20 19 19 18 14 13 14 11 9 11 11 12 12 14 15 18 19 19 18 17 16 16 16 20
27 17 18 10 10 18 16 16 9 15 14 3 11 3 22 16 11 18 21 22 23 19 18 18 20 17 17 16 17 14 17 16 20 22 24 26 26 27 28 28 26 25 22 21
24 17 10 7 7 3 8 15 8 14 12 16 20 14 14 9 13 18 25 27 26 23 18 18 15 15 17 18 19 21 23 28 33 36 37 34 40 36 32 36 35 40 36 31
19 8 13 7 10 17 13 10 6 3 7 15 13 5 9 18 24 27 25 23 20 19 15 15 17 17 20 25 27 30 35 40 41 43 41 42 39 38 30 27 30 39 45 44
24 15 18 16 11 11 17 10 4 1 6 12 15 19 21 21 26 24 24 21 19 14 13 14 18 22 25 28 32 34 37 36 36 36 35 35 40 45 47 43 38 36 35 38
28 25 15 12 16 19 11 4 4 9 4 6 4 18 20 22 24 25 20 16 13 12 12 14 17 21 25 28 31 32 32 33 33 31 34 36 38 40 42 45 46 44 40 40
29 19 9 12 22 8 11 10 11 12 7 8 15 21 25 27 25 18 14 13 11 10 12 15 21 24 27 30 33 33 34 32 33 39 44 48 50 54 56 55 51 50 50 47
19 13 13 10 12 13 18 20 11 5 14 24 23 27 30 26 16 17 13 9 9 12 17 21 24 24 25 29 30 32 32 33 37 46 51 53 53 55 59 58 58 58 54 52
18 12 16 16 10 10 12 20 18 12 10 25 26 28 24 12 12 20 11 7 10 13 18 20 20 21 25 27 30 31 33 37 47 49 53 49 46 51 49 57 60 59 61 60
16 15 11 5 8 13 24 22 9 8 15 24 27 22 16 18 16 12 7 7 11 14 16 16 18 20 22 27 30 32 35 42 50 49 45 47 47 50 51 54 58 56 51 52
8 6 2 8 9 11 33 10 13 12 23 25 26 22 21 18 12 6 3 6 10 12 13 14 16 18 21 24 26 29 35 48 49 43 46 45 45 50 51 49 51 53 49 41
7 4 3 12 11 17 20 11 16 26 28 28 26 24 18 15 10 6 3 5 7 10 10 13 15 18 21 24 25 28 41 48 41 43 46 47 48 53 52 48 47 48 48 42
7 17 12 8 13 17 16 19 27 32 33 33 27 21 17 13 9 6 6 9 10 11 13 16 19 22 24 25 24 28 41 46 43 45 47 44 47 46 51 49 48 45 35 33
18 10 10 2 31 5 36 34 34 35 32 29 27 21 15 12 11 14 15 13 11 12 15 18 20 22 24 25 25 29 32 40 48 50 47 48 48 46 48 49 50 35 34 26
Wind_Direction_850mb
208 232 222 50 20 345 304 289 294 329 228 235 239 261 130 179 203 199 190 176 175 172 163 161 220 255 246 241 245 244 246 234 238 239 229 225 228 235 253 270 268 267 270 254
191 228 90 231 283 279 271 283 100 100 152 227 183 259 117 167 205 220 205 179 175 158 141 164 313 297 237 238 241 244 249 249 253 238 239 235 245 252 254 260 285 276 265 240
212 197 128 246 243 265 217 267 117 94 151 183 257 240 188 134 176 207 200 190 174 168 153 157 175 222 254 236 247 249 248 252 257 251 254 260 258 263 260 266 264 276 274 256
218 136 200 226 263 270 225 125 121 132 250 22 253 311 155 130 122 135 162 182 189 175 171 184 200 206 246 244 248 251 257 254 262 258 248 253 259 260 261 256 251 257 265 262
202 197 218 235 261 315 60 125 99 267 275 277 163 265 121 152 123 102 83 119 205 189 186 198 216 231 259 273 260 252 256 252 269 265 262 253 261 264 276 261 270 263 254 256
205 161 220 243 197 298 162 155 189 218 271 254 85 278 122 68 69 101 90 90 125 175 183 208 225 242 259 259 241 236 252 255 279 281 276 271 268 270 270 276 269 267 256 245
211 185 196 227 240 193 223 218 231 223 206 37 95 250 56 101 79 71 87 112 123 140 162 189 211 223 224 208 202 216 242 287 303 294 302 292 276 267 294 298 279 257 250 255
196 201 221 202 244 251 214 282 271 240 250 202 138 236 99 94 95 105 102 125 130 138 137 144 146 207 215 184 143 126 97 88 73 26 14 349 311 253 297 292 272 245 259 260
197 213 187 192 221 258 168 230 348 291 218 282 141 143 176 148 124 114 111 127 134 128 121 121 111 109 128 136 121 114 106 105 75 57 15 1 328 285 300 273 271 279 265 269
188 180 183 152 184 199 276 51 209 205 192 246 153 273 303 152 148 139 136 134 138 136 133 120 108 105 109 117 106 100 93 90 85 54 2 349 344 331 322 311 301 285 276 274
169 235 153 183 206 194 178 210 230 315 305 301 252 170 69 87 129 153 144 141 137 136 132 123 107 101 105 106 94 83 80 80 67 43 13 8 9 359 348 353 359 348 324 297
210 223 170 128 108 237 306 316 212 236 170 226 323 355 59 67 145 136 142 151 136 126 127 125 118 103 92 86 82 73 67 61 54 50 13 338 341 335 322 304 342 353 340 327
179 214 137 147 159 167 189 159 306 293 314 255 296 64 68 88 101 143 144 146 136 125 127 125 107 87 85 60 52 39 24 10 4 345 331 312 302 300 295 287 295 311 315 323
201 194 236 182 133 145 161 180 220 289 295 306 259 107 83 74 103 110 118 133 121 110 109 99 82 73 60 47 32 20 6 341 345 324 317 308 303 294 288 281 279 285 287 285
216 182 234 351 62 114 129 170 196 266 343 289 5 335 61 77 110 115 120 125 120 107 94 83 72 54 37 21 5 351 342 332 323 318 317 313 307 305 289 270 276 272 270 271
216 126 179 144 165 165 159 155 183 232 276 277 296 238 85 116 117 116 111 114 105 93 80 48 41 22 7 358 348 344 335 326 321 316 313 308 307 305 308 301 289 278 271 269
188 160 195 151 149 149 200 166 202 262 258 312 288 82 142 139 127 126 125 124 115 94 63 30 11 359 350 342 341 339 335 331 330 328 324 321 319 312 304 303 303 299 291 284
191 186 205 132 168 218 80 117 231 275 311 257 125 141 146 138 129 122 121 118 96 67 36 10 351 345 342 340 339 338 336 333 332 328 328 329 324 318 316 312 308 303 295 287
169 174 146 172 210 88 165 179 177 215 135 196 159 152 149 149 138 120 107 92 76 44 17 357 347 345 343 341 338 333 333 332 334 333 330 329 325 320 316 310 305 303 303 297
153 201 190 204 200 233 78 134 139 151 251 167 164 168 168 174 223 109 125 85 38 16 0 351 344 343 341 343 345 347 346 346 341 332 327 322 320 317 313 309 304 299 285 288
153 195 207 181 253 104 117 140 157 234 72 158 169 170 172 201 47 118 109 62 24 8 354 353 350 348 348 347 350 346 340 337 332 328 328 328 324 321 319 315 311 307 297 278
181 197 196 216 252 244 151 150 219 70 138 152 158 162 153 132 123 111 81 34 7 359 356 3 358 352 348 347 345 343 339 332 331 330 332 334 335 335 331 327 323 317 307 302
196 346 19 333 38 126 161 77 127 140 144 149 149 148 146 139 129 127 76 20 5 4 23 7 359 353 348 344 343 341 335 335 334 337 342 339 338 338 338 335 332 324 317 305
142 139 178 179 124 148 164 132 151 143 141 141 142 138 139 135 132 120 66 20 34 46 26 15 7 358 352 349 347 343 339 346 339 334 336 340 339 337 340 343 343 336 331 316
42 164 161 99 132 133 165 163 147 138 136 134 129 128 124 126 121 126 106 95 84 59 30 14 6 358 352 347 345 338 355 355 354 346 342 340 338 338 343 346 346 350 347 329
187 150 207 50 157 203 164 161 153 144 141 138 131 120 110 116 126 123 115 103 76 44 24 14 8 0 354 350 347 342 355 2 6 3 2 356 349 340 343 343 342 354 355 352